FW1829 Weather Reports


Display with metric or nautical units.
time (UTC)temp
F
wind
direction
speed
MPH
gust
MPH
rain 1hr
in
rain 24hr
in
rain mn
in
humidity
%
barometer
mb
20260507114542 37 159 4.0 8.0 0.00 0.00 0.00 88 1022.6
20260507113041 38 161 4.0 9.0 0.00 0.00 0.00 89 1022.6
20260507111540 37 170 5.0 7.0 0.00 0.00 0.00 89 1022.9
20260507110039 37 172 4.0 6.0 0.00 0.00 0.00 89 1022.7
20260507104539 36 173 0.0 5.0 0.00 0.00 0.00 88 1022.7
20260507103037 36 173 1.0 4.0 0.00 0.00 0.00 88 1022.9
20260507101535 37 173 4.0 6.0 0.00 0.00 0.00 88 1023.1
20260507100037 38 173 4.0 8.0 0.00 0.00 0.00 88 1023.3
20260507094526 38 177 4.0 7.0 0.00 0.00 0.00 88 1023.3
20260507093025 39 178 2.0 9.0 0.00 0.00 0.00 88 1023.4
20260507091524 39 190 4.0 8.0 0.00 0.00 0.00 89 1023.6
20260507090020 38 194 1.0 4.0 0.00 0.00 0.00 89 1023.8
20260507084518 38 194 0.0 3.0 0.00 0.00 0.00 88 1023.9
20260507083017 39 194 2.0 5.0 0.00 0.00 0.00 88 1024.0
20260507081516 39 196 5.0 7.0 0.00 0.00 0.00 88 1024.1
20260507080011 39 198 3.0 6.0 0.00 0.00 0.00 88 1024.1
20260507074510 39 198 2.0 5.0 0.00 0.00 0.00 88 1024.3
20260507073008 39 198 1.0 5.0 0.00 0.00 0.00 88 1024.5
20260507071504 40 198 3.0 5.0 0.00 0.00 0.00 87 1024.6
20260507070106 40 198 3.0 5.0 0.00 0.00 0.00 87 1025.0
20260507064631 41 198 0.0 3.0 0.00 0.00 0.00 86 1025.1
20260507063107 42 198 4.0 6.0 0.00 0.00 0.00 87 1025.1
20260507061552 43 198 2.0 6.0 0.00 0.00 0.00 87 1025.1
20260507060109 43 198 4.0 7.0 0.00 0.00 0.00 86 1025.2
20260507054551 44 198 1.0 3.0 0.00 0.01 0.00 87 1025.2
20260507053043 45 198 0.0 3.0 0.00 0.01 0.00 87 1025.2
20260507051558 45 199 2.0 5.0 0.00 0.01 0.00 87 1025.3
20260507050045 45 198 2.0 4.0 0.00 0.01 0.00 87 1025.4
20260507044539 44 199 3.0 7.0 0.00 0.01 0.01 87 1025.6
20260507043041 42 201 2.0 5.0 0.00 0.01 0.01 86 1025.6
20260507041537 42 201 1.0 4.0 0.00 0.01 0.01 85 1025.6
20260507040035 42 201 2.0 5.0 0.00 0.01 0.01 84 1025.6
20260507034535 43 201 1.0 3.0 0.00 0.01 0.01 83 1025.5
20260507033034 44 201 2.0 4.0 0.00 0.01 0.01 82 1025.5
20260507031534 46 201 2.0 5.0 0.00 0.01 0.01 81 1025.2
20260507030034 46 201 2.0 4.0 0.00 0.01 0.01 80 1025.0
20260507024529 47 201 1.0 3.0 0.00 0.01 0.01 79 1024.6
20260507023028 48 201 0.0 0.0 0.00 0.01 0.01 77 1024.5
20260507021528 48 201 0.0 0.0 0.00 0.01 0.01 77 1024.4
20260507020029 49 201 0.0 0.0 0.00 0.01 0.01 75 1024.4
20260507014527 49 201 0.0 2.0 0.00 0.01 0.01 74 1024.5
20260507013027 49 201 0.0 2.0 0.00 0.01 0.01 73 1024.3
20260507011526 50 201 0.0 0.0 0.00 0.01 0.01 72 1024.2
20260507010033 50 201 0.0 0.0 0.00 0.01 0.01 71 1023.8
20260507004526 50 201 0.0 2.0 0.00 0.01 0.01 69 1023.9
20260507003023 51 201 0.0 1.0 0.00 0.01 0.01 67 1023.9
20260507001523 51 201 0.0 0.0 0.00 0.01 0.01 65 1023.8
20260507000022 51 201 0.0 0.0 0.00 0.01 0.01 66 1023.8
20260506234526 51 201 0.0 2.0 0.00 0.01 0.01 65 1023.9
20260506233023 52 201 0.0 1.0 0.00 0.01 0.01 66 1023.6
20260506231518 52 201 0.0 1.0 0.00 0.01 0.01 66 1023.6
20260506230024 52 201 0.0 1.0 0.00 0.01 0.01 66 1023.5
20260506224518 53 201 0.0 3.0 0.00 0.01 0.01 65 1023.3
20260506223012 53 206 0.0 3.0 0.00 0.01 0.01 67 1023.4
20260506221511 52 206 1.0 4.0 0.00 0.01 0.01 68 1023.5
20260506220014 52 205 1.0 3.0 0.00 0.01 0.01 70 1023.6
20260506214505 51 205 0.0 4.0 0.00 0.01 0.01 73 1023.5
20260506213003 51 204 0.0 2.0 0.00 0.01 0.01 75 1023.5
20260506211601 50 249 0.0 4.0 0.00 0.01 0.01 77 1023.8
20260506210106 49 231 0.0 1.0 0.00 0.01 0.01 78 1024.0
20260506204607 49 231 0.0 2.0 0.00 0.01 0.01 80 1024.0
20260506203058 48 227 0.0 4.0 0.00 0.01 0.01 80 1024.1
20260506201558 48 223 0.0 4.0 0.00 0.01 0.01 81 1024.2
20260506200057 49 223 1.0 6.0 0.00 0.01 0.01 81 1024.1
20260506194556 49 223 1.0 3.0 0.00 0.01 0.01 83 1024.1
20260506193055 49 223 1.0 4.0 0.00 0.01 0.01 84 1024.1
20260506191552 48 223 2.0 5.0 0.00 0.01 0.01 87 1024.2
20260506190048 47 222 2.0 6.0 0.00 0.01 0.01 88 1024.4
20260506184558 46 228 2.0 6.0 0.00 0.01 0.01 89 1024.6
20260506183046 46 225 1.0 4.0 0.00 0.01 0.01 89 1024.8
20260506181544 46 277 2.0 7.0 0.00 0.01 0.01 90 1024.9
20260506180043 45 257 1.0 5.0 0.00 0.01 0.01 90 1025.1
20260506174542 46 305 2.0 6.0 0.00 0.01 0.01 90 1024.9
20260506173046 45 305 2.0 6.0 0.00 0.01 0.01 91 1024.8
20260506171550 44 305 1.0 6.0 0.00 0.01 0.01 90 1024.9
20260506170038 43 305 0.0 5.0 0.00 0.01 0.01 90 1024.8
20260506164535 43 305 0.0 4.0 0.00 0.01 0.01 90 1024.7
20260506163035 44 304 1.0 5.0 0.00 0.01 0.01 90 1024.6
20260506161533 44 317 1.0 7.0 0.00 0.01 0.01 90 1024.0
20260506160031 43 284 0.0 4.0 0.00 0.01 0.01 90 1024.2
20260506154529 43 298 0.0 8.0 0.00 0.01 0.01 90 1023.9
20260506153027 43 261 0.0 3.0 0.00 0.01 0.01 90 1023.9
20260506151528 43 262 1.0 7.0 0.00 0.01 0.01 90 1023.6
20260506150027 43 262 0.0 4.0 0.00 0.01 0.01 90 1023.5
20260506144524 43 262 0.0 4.0 0.00 0.01 0.01 90 1023.5
20260506143024 42 262 1.0 6.0 0.00 0.01 0.01 89 1023.5
20260506141523 42 262 0.0 4.0 0.00 0.01 0.01 89 1023.6
20260506140027 42 262 0.0 4.0 0.00 0.01 0.01 89 1023.6
20260506134521 42 262 0.0 3.0 0.00 0.01 0.01 89 1023.5
20260506133027 42 262 0.0 2.0 0.00 0.01 0.01 89 1023.4
20260506131519 42 262 0.0 1.0 0.00 0.01 0.01 89 1023.3
20260506130018 42 262 0.0 1.0 0.00 0.01 0.01 89 1023.1
20260506124513 42 262 0.0 2.0 0.00 0.01 0.01 89 1022.4
20260506123012 42 262 0.0 1.0 0.00 0.01 0.01 89 1022.1
20260506121510 42 262 0.0 1.0 0.00 0.01 0.01 89 1022.0
20260506120009 42 262 0.0 0.0 0.00 0.01 0.01 89 1021.7